TimeEDT,TemperatureF,Dew PointF,Humidity,Sea Level PressureIn,VisibilityMPH,Wind Direction,Wind SpeedMPH,Gust SpeedMPH,PrecipitationIn,Events,Conditions,WindDirDegrees,DateUTC
12:51 AM,79.0,70.0,74,29.85,9.0,West,4.6,-,N/A,,Clear,280,2013-07-20 04:51:00
1:51 AM,77.0,70.0,79,29.84,8.0,SW,5.8,-,N/A,,Clear,230,2013-07-20 05:51:00
2:51 AM,75.9,70.0,82,29.83,8.0,WSW,4.6,-,N/A,,Clear,240,2013-07-20 06:51:00
3:51 AM,73.9,69.1,85,29.81,8.0,SW,6.9,-,N/A,,Clear,220,2013-07-20 07:51:00
4:51 AM,75.0,70.0,84,29.81,8.0,WSW,8.1,-,N/A,,Clear,250,2013-07-20 08:51:00
5:51 AM,73.0,69.1,87,29.83,7.0,SW,5.8,-,N/A,,Clear,230,2013-07-20 09:51:00
6:51 AM,75.9,70.0,82,29.83,7.0,WSW,8.1,-,N/A,,Clear,240,2013-07-20 10:51:00
7:51 AM,77.0,70.0,79,29.84,8.0,WSW,5.8,-,N/A,,Clear,240,2013-07-20 11:51:00
8:51 AM,79.0,70.0,74,29.83,9.0,WSW,6.9,-,N/A,,Clear,250,2013-07-20 12:51:00
9:51 AM,81.0,70.0,69,29.84,10.0,SW,9.2,-,N/A,,Clear,230,2013-07-20 13:51:00
10:51 AM,84.9,71.1,63,29.82,9.0,WSW,13.8,19.6,N/A,,Partly Cloudy,240,2013-07-20 14:51:00
11:51 AM,87.1,72.0,61,29.80,9.0,SW,16.1,24.2,N/A,,Partly Cloudy,220,2013-07-20 15:51:00
12:51 PM,90.0,72.0,55,29.79,8.0,WSW,16.1,21.9,N/A,,Partly Cloudy,250,2013-07-20 16:51:00
1:51 PM,91.0,72.0,53,29.79,9.0,WSW,15.0,26.5,N/A,,Scattered Clouds,240,2013-07-20 17:51:00
2:51 PM,91.9,70.0,48,29.76,10.0,West,15.0,21.9,N/A,,Scattered Clouds,260,2013-07-20 18:51:00
3:51 PM,93.0,68.0,44,29.77,10.0,West,12.7,21.9,N/A,,Clear,260,2013-07-20 19:51:00
4:51 PM,91.9,69.1,47,29.76,10.0,WNW,10.4,19.6,N/A,,Partly Cloudy,300,2013-07-20 20:51:00
5:51 PM,88.0,69.1,53,29.75,10.0,NNW,3.5,-,N/A,,Scattered Clouds,340,2013-07-20 21:51:00
6:51 PM,82.0,73.9,76,29.75,8.0,North,8.1,-,0.14,,Overcast,10,2013-07-20 22:51:00
7:02 PM,78.8,71.6,78,29.79,1.8,SW,12.7,29.9,0.03,Rain-Thunderstorm,Thunderstorms and Rain,230,2013-07-20 23:02:00
7:12 PM,78.8,69.8,74,29.79,2.5,Variable,3.5,34.5,0.12,Rain-Thunderstorm,Thunderstorms and Rain,0,2013-07-20 23:12:00
7:19 PM,78.8,69.8,74,29.79,10.0,NNW,3.5,-,0.12,Rain-Thunderstorm,Thunderstorms and Rain,330,2013-07-20 23:19:00
7:32 PM,78.8,71.6,78,29.80,10.0,SSE,6.9,-,0.12,,Partly Cloudy,150,2013-07-20 23:32:00
7:51 PM,77.0,72.0,84,29.80,10.0,Calm,Calm,-,0.12,,Mostly Cloudy,0,2013-07-20 23:51:00
8:51 PM,77.0,73.9,90,29.82,10.0,SSW,5.8,-,N/A,,Overcast,210,2013-07-21 00:51:00
9:51 PM,75.9,72.0,87,29.82,10.0,SW,3.5,-,N/A,,Scattered Clouds,230,2013-07-21 01:51:00
10:51 PM,75.9,73.0,91,29.84,10.0,WSW,3.5,-,N/A,,Mostly Cloudy,240,2013-07-21 02:51:00
11:51 PM,75.0,73.0,94,29.85,8.0,NW,3.5,-,N/A,,Mostly Cloudy,320,2013-07-21 03:51:00